Flag for United Arab Emirates Weather past 2 weeks in Al Ain, Abu Dhabi, United Arab Emirates

Now
72 °F

Clear.


Feels Like: 75 °F
Forecast: 67 / 91 °F
Wind: 7 mph from North

Location: Al Ain International Airport

Current Time: Mar 28, 2015 at 6:36:34 AM

Latest Report: Mar 28, 2015 at 6:00 AM


Visibility: 10 mi

Pressure: 29.98 "Hg

Humidity: 69%

Dew point: 61 °F

Location of Al AinLocation

Historic Weather in Al Ain — Graph

°F

Al Ain temperature yesterday

Maximum temperature yesterday: 90 °F (at 1:00 PM)
Minimum temperature yesterday: 68 °F (at 5:00 AM)
Average temperature yesterday: 79 °F

Past Weeks' High & Low Weather Summary

 TemperatureHumidityPressure
High95 °F (Mar 22, 2:00 PM)88% (Mar 24, 5:00 AM)30.09 "Hg (Mar 24, 5:00 AM)
Low59 °F (Mar 13, 5:00 AM)9% (Mar 25, 10:00 AM)29.89 "Hg (Mar 18, 4:00 PM)
Average79 °F39%29.99 "Hg
* Reported Mar 13 5:00 AM — Mar 28 5:00 AM, Al Ain, Weather by CustomWeather, © 2015

Note: Actual official high and low records may vary slightly from our data, if they occured in-between our weather recording intervals... More about our weather records

Advertising

Al Ain weather history for previous 24 hours

 ConditionsComfort  
Time TempWeatherWind HumidityBarometerVisibility
5:00 AM
Sat, Mar 28
72 °FClear.8 mph65%29.98 "Hg10 mi
4:00 AM73 °FClear.9 mph61%29.98 "Hg10 mi
3:00 AM75 °FLight rain. Passing clouds.6 mph57%29.98 "HgN/A
2:00 AM77 °FClear.7 mph47%29.98 "Hg10 mi
1:00 AM77 °FClear.6 mph47%30.01 "Hg10 mi
12:00 AM79 °FClear.8 mph42%29.98 "Hg10 mi
11:00 PM
Fri, Mar 27
81 °FPassing clouds.8 mph39%30.01 "HgN/A
10:00 PM81 °FClear.7 mph37%30.01 "Hg10 mi
9:00 PM82 °FClear.7 mph35%30.01 "Hg10 mi
8:00 PM82 °FClear.10 mph35%30.01 "Hg10 mi
7:00 PM84 °FClear.16 mph33%29.98 "Hg10 mi
6:00 PM86 °FSunny.17 mph31%29.98 "Hg10 mi
5:00 PM88 °FSunny.16 mph29%29.95 "Hg10 mi
4:00 PM90 °FPassing clouds.16 mph27%29.98 "HgN/A
3:00 PM90 °FSunny.20 mph29%29.98 "Hg10 mi
2:00 PM90 °FSunny.17 mph31%30.01 "Hg10 mi
1:00 PM90 °FSunny.17 mph29%30.04 "Hg10 mi
12:00 PM88 °FSunny.13 mph31%30.04 "Hg10 mi
11:00 AM84 °FSunny.15 mph37%30.07 "Hg10 mi
10:00 AM81 °FSunny.12 mph45%30.07 "Hg10 mi
9:00 AM77 °FSunny.10 mph51%30.07 "Hg10 mi
8:00 AM73 °FSunny.10 mph50%30.07 "Hg10 mi
7:00 AM70 °FSunny.6 mph50%30.04 "Hg10 mi
6:00 AM68 °FClear.7 mph56%30.01 "Hg10 mi
Weather by CustomWeather, © 2015

See weather overviewHow to use our weather pages